AAL956 KIAH-MMMY

Flight info

Callsign AAL956
Flight time 1h 14m
Altitude 32000
Route RITAA7 CRP DCT FETMO DCT CAMUI UJ13 ITPIS ITPIS1A
Aircraft B738/M-SDE2E3FGHIRWXY/LB1

Departure

Time 2026-05-07 01:08
Airport George Bush Intercontinental Airport (KIAH)

Arrival

Time 2026-05-07 02:22
Airport Monterrey International Airport (MMMY)
Time Latitude Longitude Altitude Speed Heading
2026-05-07 00:42 29.98902 -95.34205 101 ft 0 kts 134°
2026-05-07 00:53 29.98906 -95.34210 92 ft 2 kts 123°
2026-05-07 00:53 29.98913 -95.34225 102 ft 2 kts 98°
2026-05-07 00:53 29.98911 -95.34241 102 ft 2 kts 41°
2026-05-07 00:54 29.98898 -95.34249 101 ft 1 kts
2026-05-07 00:54 29.98895 -95.34250 101 ft 0 kts
2026-05-07 00:58 29.98930 -95.34261 100 ft 11 kts 358°
2026-05-07 00:58 29.99024 -95.34254 101 ft 14 kts 350°
2026-05-07 00:58 29.99087 -95.34323 101 ft 13 kts 279°
2026-05-07 00:59 29.99089 -95.34531 100 ft 13 kts 269°
2026-05-07 00:59 29.99088 -95.34631 101 ft 12 kts 270°
2026-05-07 00:59 29.99088 -95.34729 102 ft 12 kts 271°
2026-05-07 01:00 29.99090 -95.34823 102 ft 12 kts 271°
2026-05-07 01:00 29.99089 -95.34916 102 ft 11 kts 270°
2026-05-07 01:00 29.99089 -95.35006 102 ft 11 kts 269°
2026-05-07 01:00 29.99088 -95.35093 102 ft 11 kts 270°
2026-05-07 01:01 29.99078 -95.35176 102 ft 10 kts 268°
2026-05-07 01:01 29.99087 -95.35257 102 ft 10 kts 272°
2026-05-07 01:01 29.99087 -95.35338 102 ft 10 kts 270°
2026-05-07 01:01 29.99087 -95.35415 102 ft 10 kts 269°
2026-05-07 01:02 29.99083 -95.35491 102 ft 9 kts 264°
2026-05-07 01:02 29.99081 -95.35565 102 ft 9 kts 274°
2026-05-07 01:02 29.99061 -95.35627 102 ft 9 kts 211°
2026-05-07 01:02 29.99003 -95.35621 103 ft 9 kts 146°
2026-05-07 01:03 29.98967 -95.35569 103 ft 8 kts 139°
2026-05-07 01:03 29.98919 -95.35533 103 ft 8 kts 151°
2026-05-07 01:03 29.98871 -95.35503 102 ft 8 kts 152°
2026-05-07 01:03 29.98823 -95.35473 102 ft 8 kts 151°
2026-05-07 01:04 29.98778 -95.35444 102 ft 7 kts 150°
2026-05-07 01:04 29.98737 -95.35410 102 ft 7 kts 125°
2026-05-07 01:04 29.98732 -95.35391 101 ft 0 kts 111°
2026-05-07 01:04 29.98720 -95.35387 102 ft 2 kts 187°
2026-05-07 01:05 29.98715 -95.35401 101 ft 2 kts 274°
2026-05-07 01:05 29.98729 -95.35413 100 ft 5 kts 327°
2026-05-07 01:05 29.98777 -95.35445 102 ft 11 kts 330°
2026-05-07 01:05 29.98829 -95.35521 102 ft 13 kts 259°
2026-05-07 01:06 29.98814 -95.35544 101 ft 6 kts 230°
2026-05-07 01:06 29.98784 -95.35591 102 ft 9 kts 240°
2026-05-07 01:06 29.98754 -95.35659 102 ft 10 kts 245°
2026-05-07 01:06 29.98715 -95.35720 104 ft 10 kts 189°
2026-05-07 01:07 29.98669 -95.35708 104 ft 0 kts 153°
2026-05-07 01:07 29.98606 -95.35670 103 ft 38 kts 152°
2026-05-07 01:08 29.98101 -95.35365 101 ft 123 kts 152°
2026-05-07 01:08 29.97133 -95.34761 178 ft 185 kts 150°
2026-05-07 01:08 29.95953 -95.33991 902 ft 202 kts 149°
2026-05-07 01:08 29.94872 -95.32900 1642 ft 217 kts 125°
2026-05-07 01:09 29.93945 -95.31427 2158 ft 239 kts 126°
2026-05-07 01:09 29.92882 -95.29814 2586 ft 268 kts 127°
2026-05-07 01:09 29.92080 -95.28611 2560 ft 304 kts 128°
2026-05-07 01:09 29.90651 -95.26514 2438 ft 351 kts 128°
2026-05-07 01:10 29.89136 -95.24305 3432 ft 343 kts 129°
2026-05-07 01:10 29.87743 -95.22200 3884 ft 318 kts 126°
2026-05-07 01:10 29.86497 -95.20167 4423 ft 304 kts 126°
2026-05-07 01:10 29.85312 -95.18223 4863 ft 291 kts 126°
2026-05-07 01:11 29.84159 -95.16353 4998 ft 283 kts 126°
2026-05-07 01:11 29.83024 -95.14522 5000 ft 279 kts 126°
2026-05-07 01:11 29.81770 -95.12842 5020 ft 275 kts 140°
2026-05-07 01:11 29.80248 -95.11476 5437 ft 279 kts 145°
2026-05-07 01:12 29.78671 -95.10142 6285 ft 281 kts 144°
2026-05-07 01:12 29.77049 -95.08881 7064 ft 282 kts 158°
2026-05-07 01:12 29.75151 -95.08409 7787 ft 280 kts 185°
2026-05-07 01:12 29.73285 -95.08946 8579 ft 276 kts 209°
2026-05-07 01:13 29.71736 -95.10181 9399 ft 275 kts 220°
2026-05-07 01:13 29.70263 -95.11592 10160 ft 276 kts 221°
2026-05-07 01:13 29.68752 -95.13057 10547 ft 294 kts 222°
2026-05-07 01:13 29.67123 -95.14620 10699 ft 316 kts 221°
2026-05-07 01:14 29.65388 -95.16310 10848 ft 336 kts 224°
2026-05-07 01:14 29.63643 -95.18210 11021 ft 353 kts 226°
2026-05-07 01:14 29.61861 -95.20201 11462 ft 360 kts 225°
2026-05-07 01:14 29.60077 -95.22179 12111 ft 359 kts 225°
2026-05-07 01:15 29.58311 -95.24202 12803 ft 359 kts 229°
2026-05-07 01:15 29.56686 -95.26387 13393 ft 360 kts 232°
2026-05-07 01:15 29.55127 -95.28643 13956 ft 361 kts 232°
2026-05-07 01:15 29.53577 -95.30919 14506 ft 362 kts 233°
2026-05-07 01:16 29.52019 -95.33196 15034 ft 363 kts 232°
2026-05-07 01:16 29.50445 -95.35474 15563 ft 365 kts 232°
2026-05-07 01:16 29.48856 -95.37754 16069 ft 366 kts 232°
2026-05-07 01:16 29.47251 -95.40041 16581 ft 368 kts 232°
2026-05-07 01:17 29.45639 -95.42329 17091 ft 369 kts 232°
2026-05-07 01:17 29.44042 -95.44591 17587 ft 371 kts 232°
2026-05-07 01:17 29.42413 -95.46895 18082 ft 372 kts 232°
2026-05-07 01:17 29.40778 -95.49203 18510 ft 374 kts 232°
2026-05-07 01:18 29.39131 -95.51529 18918 ft 376 kts 232°
2026-05-07 01:18 29.37481 -95.53857 19316 ft 378 kts 232°
2026-05-07 01:18 29.35817 -95.56204 19720 ft 379 kts 232°
2026-05-07 01:18 29.34150 -95.58553 20121 ft 381 kts 232°
2026-05-07 01:19 29.32476 -95.60912 20517 ft 383 kts 232°
2026-05-07 01:19 29.30787 -95.63290 20902 ft 385 kts 232°
2026-05-07 01:19 29.29093 -95.65675 21280 ft 386 kts 232°
2026-05-07 01:19 29.27393 -95.68066 21667 ft 388 kts 232°
2026-05-07 01:20 29.25688 -95.70465 22040 ft 390 kts 232°
2026-05-07 01:20 29.23973 -95.72876 22405 ft 391 kts 232°
2026-05-07 01:20 29.22245 -95.75299 22732 ft 393 kts 232°
2026-05-07 01:20 29.20508 -95.77725 23080 ft 395 kts 232°
2026-05-07 01:21 29.18739 -95.80146 23412 ft 397 kts 230°
2026-05-07 01:21 29.16882 -95.82454 23691 ft 400 kts 228°
2026-05-07 01:21 29.14945 -95.84746 23965 ft 401 kts 228°
2026-05-07 01:21 29.12987 -95.87038 24232 ft 403 kts 228°
2026-05-07 01:22 29.11031 -95.89335 24506 ft 404 kts 228°
2026-05-07 01:22 29.09070 -95.91652 24764 ft 405 kts 228°
2026-05-07 01:22 29.07108 -95.93986 25010 ft 407 kts 228°
2026-05-07 01:22 29.05149 -95.96325 25252 ft 408 kts 229°
2026-05-07 01:23 29.03180 -95.98684 25493 ft 409 kts 229°
2026-05-07 01:23 29.01224 -96.01059 25732 ft 411 kts 229°
2026-05-07 01:23 28.99257 -96.03432 25960 ft 412 kts 229°
2026-05-07 01:23 28.97275 -96.05806 26189 ft 413 kts 229°
2026-05-07 01:24 28.95310 -96.08152 26408 ft 415 kts 229°
2026-05-07 01:24 28.93307 -96.10540 26618 ft 416 kts 229°
2026-05-07 01:24 28.91296 -96.12937 26872 ft 417 kts 229°
2026-05-07 01:24 28.89289 -96.15328 27197 ft 415 kts 229°
2026-05-07 01:25 28.87298 -96.17699 27542 ft 414 kts 229°
2026-05-07 01:25 28.85311 -96.20065 27877 ft 412 kts 229°
2026-05-07 01:25 28.83327 -96.22427 28189 ft 412 kts 229°
2026-05-07 01:25 28.81349 -96.24782 28524 ft 411 kts 229°
2026-05-07 01:26 28.79376 -96.27129 28871 ft 409 kts 229°
2026-05-07 01:26 28.77407 -96.29468 29192 ft 409 kts 229°
2026-05-07 01:26 28.75431 -96.31793 29531 ft 408 kts 228°
2026-05-07 01:26 28.73399 -96.34063 29894 ft 407 kts 227°
2026-05-07 01:27 28.71350 -96.36282 30197 ft 406 kts 226°
2026-05-07 01:27 28.69301 -96.38448 30451 ft 406 kts 226°
2026-05-07 01:27 28.67237 -96.40643 30701 ft 406 kts 226°
2026-05-07 01:27 28.65180 -96.42856 30980 ft 405 kts 226°
2026-05-07 01:28 28.63146 -96.45063 31285 ft 403 kts 226°
2026-05-07 01:28 28.61118 -96.47273 31593 ft 402 kts 226°
2026-05-07 01:28 28.59100 -96.49475 31863 ft 401 kts 227°
2026-05-07 01:29 28.55037 -96.53912 31867 ft 404 kts 226°
2026-05-07 01:29 28.51025 -96.58288 31883 ft 401 kts 227°
2026-05-07 01:30 28.47004 -96.62664 31872 ft 399 kts 226°
2026-05-07 01:30 28.42998 -96.67018 31873 ft 398 kts 226°
2026-05-07 01:31 28.38990 -96.71374 31875 ft 398 kts 226°
2026-05-07 01:31 28.34983 -96.75722 31876 ft 399 kts 226°
2026-05-07 01:32 28.30966 -96.80080 31869 ft 400 kts 226°
2026-05-07 01:32 28.26933 -96.84447 31870 ft 402 kts 226°
2026-05-07 01:33 28.22898 -96.88815 31864 ft 403 kts 226°
2026-05-07 01:33 28.18829 -96.93212 31863 ft 405 kts 226°
2026-05-07 01:34 28.14746 -96.97623 31858 ft 406 kts 226°
2026-05-07 01:34 28.10653 -97.02040 31860 ft 407 kts 226°
2026-05-07 01:35 28.06553 -97.06471 31866 ft 407 kts 226°
2026-05-07 01:35 28.02474 -97.10865 31858 ft 407 kts 226°
2026-05-07 01:36 27.98757 -97.15621 31891 ft 401 kts 240°
2026-05-07 01:36 27.96820 -97.21513 31861 ft 401 kts 253°
2026-05-07 01:37 27.95258 -97.27574 31883 ft 402 kts 251°
2026-05-07 01:37 27.93498 -97.33586 31853 ft 402 kts 251°
2026-05-07 01:38 27.91772 -97.39614 31856 ft 402 kts 249°
2026-05-07 01:38 27.90497 -97.42368 31865 ft 403 kts 236°
2026-05-07 01:38 27.88678 -97.44796 31856 ft 406 kts 227°
2026-05-07 01:38 27.86445 -97.46775 31857 ft 412 kts 215°
2026-05-07 01:39 27.83904 -97.48312 31874 ft 415 kts 212°
2026-05-07 01:39 27.78691 -97.51153 31853 ft 416 kts 211°
2026-05-07 01:40 27.73466 -97.53968 31864 ft 415 kts 211°
2026-05-07 01:40 27.68275 -97.56813 31852 ft 414 kts 211°
2026-05-07 01:41 27.63122 -97.59665 31857 ft 414 kts 211°
2026-05-07 01:41 27.57935 -97.62542 31847 ft 414 kts 211°
2026-05-07 01:42 27.52761 -97.65410 31855 ft 414 kts 211°
2026-05-07 01:42 27.47590 -97.68272 31853 ft 414 kts 211°
2026-05-07 01:43 27.42453 -97.71112 31852 ft 414 kts 211°
2026-05-07 01:43 27.37277 -97.73971 31849 ft 415 kts 211°
2026-05-07 01:44 27.32086 -97.76835 31843 ft 415 kts 211°
2026-05-07 01:44 27.26898 -97.79694 31839 ft 415 kts 211°
2026-05-07 01:45 27.21701 -97.82555 31826 ft 416 kts 211°
2026-05-07 01:45 27.16501 -97.85415 31832 ft 416 kts 211°
2026-05-07 01:46 27.11297 -97.88273 31830 ft 416 kts 211°
2026-05-07 01:46 27.06125 -97.91112 31827 ft 416 kts 211°
2026-05-07 01:47 27.00904 -97.93974 31823 ft 417 kts 211°
2026-05-07 01:47 26.95694 -97.96826 31819 ft 417 kts 210°
2026-05-07 01:48 26.90458 -97.99662 31805 ft 417 kts 210°
2026-05-07 01:48 26.85224 -98.02491 31802 ft 417 kts 210°
2026-05-07 01:49 26.80048 -98.05313 31801 ft 417 kts 210°
2026-05-07 01:49 26.74837 -98.08173 31814 ft 416 kts 211°
2026-05-07 01:50 26.69644 -98.11063 31811 ft 417 kts 211°
2026-05-07 01:50 26.64415 -98.13910 31818 ft 418 kts 210°
2026-05-07 01:51 26.59175 -98.16750 31825 ft 418 kts 210°
2026-05-07 01:51 26.53931 -98.19595 31827 ft 419 kts 210°
2026-05-07 01:52 26.48718 -98.22423 31831 ft 419 kts 210°
2026-05-07 01:52 26.43466 -98.25271 31828 ft 419 kts 210°
2026-05-07 01:53 26.38218 -98.28113 31821 ft 419 kts 210°
2026-05-07 01:53 26.32964 -98.30956 31794 ft 420 kts 210°
2026-05-07 01:54 26.27709 -98.33797 31791 ft 420 kts 210°
2026-05-07 01:54 26.22460 -98.36646 31794 ft 418 kts 213°
2026-05-07 01:54 26.20147 -98.38565 31799 ft 411 kts 228°
2026-05-07 01:55 26.18386 -98.41009 31799 ft 409 kts 238°
2026-05-07 01:55 26.17074 -98.43808 31787 ft 409 kts 249°
2026-05-07 01:55 26.16357 -98.46882 31806 ft 411 kts 257°
2026-05-07 01:55 26.15871 -98.50025 31669 ft 413 kts 258°
2026-05-07 01:56 26.15418 -98.53188 31280 ft 411 kts 258°
2026-05-07 01:56 26.14960 -98.56308 30783 ft 406 kts 258°
2026-05-07 01:56 26.14486 -98.59390 30376 ft 400 kts 257°
2026-05-07 01:56 26.14006 -98.62424 29955 ft 395 kts 257°
2026-05-07 01:57 26.13688 -98.64414 29613 ft 393 kts 257°
2026-05-07 01:57 26.13202 -98.67390 29085 ft 389 kts 256°
2026-05-07 01:57 26.12560 -98.70293 28561 ft 384 kts 252°
2026-05-07 01:57 26.11854 -98.73140 28062 ft 380 kts 252°
2026-05-07 01:58 26.11136 -98.75964 27575 ft 376 kts 252°
2026-05-07 01:58 26.10426 -98.78757 27085 ft 373 kts 252°
2026-05-07 01:58 26.09728 -98.81523 26628 ft 370 kts 252°
2026-05-07 01:58 26.09040 -98.84271 26165 ft 367 kts 252°
2026-05-07 01:59 26.08368 -98.86966 25701 ft 365 kts 252°
2026-05-07 01:59 26.07694 -98.89678 25256 ft 363 kts 252°
2026-05-07 01:59 26.07023 -98.92375 24789 ft 361 kts 252°
2026-05-07 01:59 26.06355 -98.95064 24316 ft 360 kts 252°
2026-05-07 02:00 26.05687 -98.97750 23855 ft 359 kts 251°
2026-05-07 02:00 26.05019 -99.00424 23391 ft 358 kts 251°
2026-05-07 02:00 26.04356 -99.03083 22866 ft 357 kts 251°
2026-05-07 02:00 26.03691 -99.05750 22274 ft 357 kts 251°
2026-05-07 02:01 26.03044 -99.08354 21876 ft 352 kts 251°
2026-05-07 02:01 26.02398 -99.10951 21469 ft 348 kts 251°
2026-05-07 02:01 26.01751 -99.13555 21013 ft 346 kts 251°
2026-05-07 02:01 26.01109 -99.16126 20576 ft 344 kts 251°
2026-05-07 02:02 26.00471 -99.18674 20145 ft 342 kts 251°
2026-05-07 02:02 25.99838 -99.21195 19940 ft 333 kts 251°
2026-05-07 02:02 25.99153 -99.23664 19415 ft 336 kts 248°
2026-05-07 02:02 25.98392 -99.26122 18962 ft 338 kts 248°
2026-05-07 02:03 25.97611 -99.28612 18473 ft 344 kts 248°
2026-05-07 02:03 25.96831 -99.31135 17963 ft 347 kts 248°
2026-05-07 02:03 25.96052 -99.33681 17406 ft 349 kts 248°
2026-05-07 02:03 25.95273 -99.36233 17028 ft 346 kts 249°
2026-05-07 02:04 25.94506 -99.38743 16943 ft 342 kts 248°
2026-05-07 02:04 25.93733 -99.41247 16905 ft 341 kts 248°
2026-05-07 02:04 25.92964 -99.43738 16902 ft 340 kts 248°
2026-05-07 02:04 25.92198 -99.46220 16899 ft 341 kts 248°
2026-05-07 02:05 25.91429 -99.48716 16896 ft 340 kts 248°
2026-05-07 02:05 25.90664 -99.51201 16899 ft 340 kts 248°
2026-05-07 02:05 25.89900 -99.53688 16904 ft 339 kts 248°
2026-05-07 02:05 25.89138 -99.56167 16908 ft 339 kts 248°
2026-05-07 02:06 25.88384 -99.58616 16911 ft 339 kts 248°
2026-05-07 02:06 25.87619 -99.61091 16914 ft 339 kts 248°
2026-05-07 02:06 25.86846 -99.63577 16915 ft 340 kts 247°
2026-05-07 02:06 25.85708 -99.65852 16916 ft 337 kts 230°
2026-05-07 02:07 25.84038 -99.67628 16763 ft 330 kts 215°
2026-05-07 02:07 25.81000 -99.71123 16502 ft 310 kts 243°
2026-05-07 02:07 25.80397 -99.73384 16367 ft 304 kts 260°
2026-05-07 02:08 25.80418 -99.75717 16237 ft 303 kts 274°
2026-05-07 02:08 25.81001 -99.77966 16079 ft 306 kts 290°
2026-05-07 02:08 25.82046 -99.80046 15958 ft 313 kts 296°
2026-05-07 02:08 25.83253 -99.82102 15738 ft 321 kts 298°
2026-05-07 02:09 25.84487 -99.84171 15521 ft 321 kts 298°
2026-05-07 02:09 25.85706 -99.86249 15288 ft 320 kts 297°
2026-05-07 02:09 25.86897 -99.88301 15068 ft 319 kts 297°
2026-05-07 02:09 25.88079 -99.90359 14828 ft 310 kts 297°
2026-05-07 02:10 25.89217 -99.92343 14612 ft 298 kts 297°
2026-05-07 02:10 25.90308 -99.94250 14392 ft 287 kts 297°
2026-05-07 02:10 25.91359 -99.96091 14182 ft 277 kts 297°
2026-05-07 02:10 25.92374 -99.97872 13983 ft 270 kts 297°
2026-05-07 02:11 25.93378 -99.99630 13659 ft 270 kts 297°
2026-05-07 02:11 25.94382 -100.01388 13321 ft 269 kts 297°
2026-05-07 02:11 25.95385 -100.03148 12976 ft 269 kts 297°
2026-05-07 02:11 25.96383 -100.04899 12639 ft 268 kts 297°
2026-05-07 02:12 25.97389 -100.06661 12245 ft 270 kts 298°
2026-05-07 02:12 25.98398 -100.08430 11850 ft 271 kts 298°
2026-05-07 02:12 25.99404 -100.10193 11442 ft 269 kts 298°
2026-05-07 02:12 26.00405 -100.11946 11052 ft 267 kts 299°
2026-05-07 02:13 26.01384 -100.13663 10654 ft 261 kts 299°
2026-05-07 02:13 26.02331 -100.15326 10267 ft 255 kts 299°
2026-05-07 02:13 26.03265 -100.16970 9889 ft 248 kts 299°
2026-05-07 02:13 26.04168 -100.18582 9503 ft 242 kts 296°
2026-05-07 02:14 26.04574 -100.20338 9115 ft 233 kts 264°
2026-05-07 02:14 26.04115 -100.22009 8734 ft 225 kts 236°
2026-05-07 02:14 26.03081 -100.23266 8391 ft 217 kts 213°
2026-05-07 02:14 26.01818 -100.24164 8028 ft 215 kts 207°
2026-05-07 02:15 26.00528 -100.25006 7674 ft 216 kts 207°
2026-05-07 02:15 25.99235 -100.25861 7331 ft 217 kts 209°
2026-05-07 02:15 25.97966 -100.26766 7004 ft 216 kts 209°
2026-05-07 02:15 25.96688 -100.27613 6729 ft 210 kts 207°
2026-05-07 02:16 25.95441 -100.28430 6469 ft 206 kts 207°
2026-05-07 02:16 25.94222 -100.29235 6202 ft 202 kts 206°
2026-05-07 02:16 25.93036 -100.30023 5962 ft 200 kts 207°
2026-05-07 02:16 25.91845 -100.30818 5704 ft 199 kts 207°
2026-05-07 02:17 25.90595 -100.31393 5430 ft 191 kts 178°
2026-05-07 02:17 25.89376 -100.31067 5216 ft 176 kts 143°
2026-05-07 02:17 25.88531 -100.30108 5059 ft 177 kts 120°
2026-05-07 02:17 25.87874 -100.28923 4801 ft 181 kts 119°
2026-05-07 02:18 25.87216 -100.27736 4573 ft 179 kts 119°
2026-05-07 02:18 25.86576 -100.26577 4348 ft 171 kts 119°
2026-05-07 02:18 25.85966 -100.25472 4127 ft 166 kts 119°
2026-05-07 02:18 25.85369 -100.24388 3929 ft 162 kts 119°
2026-05-07 02:19 25.84800 -100.23356 3747 ft 157 kts 118°
2026-05-07 02:19 25.84234 -100.22324 3549 ft 155 kts 118°
2026-05-07 02:19 25.83682 -100.21318 3354 ft 150 kts 118°
2026-05-07 02:19 25.83144 -100.20338 3151 ft 147 kts 118°
2026-05-07 02:20 25.82616 -100.19375 2963 ft 146 kts 118°
2026-05-07 02:20 25.82090 -100.18415 2812 ft 144 kts 118°
2026-05-07 02:20 25.81555 -100.17439 2587 ft 149 kts 118°
2026-05-07 02:20 25.81016 -100.16456 2380 ft 147 kts 117°
2026-05-07 02:21 25.80495 -100.15509 2178 ft 145 kts 117°
2026-05-07 02:21 25.79966 -100.14547 2022 ft 147 kts 117°
2026-05-07 02:21 25.79444 -100.13570 1888 ft 147 kts 116°
2026-05-07 02:21 25.78900 -100.12590 1647 ft 150 kts 118°
2026-05-07 02:22 25.78352 -100.11596 1322 ft 149 kts 118°
2026-05-07 02:22 25.77837 -100.10659 1270 ft 116 kts 122°
2026-05-07 02:22 25.77597 -100.10236 1264 ft 43 kts 122°
2026-05-07 02:22 25.77450 -100.09958 1262 ft 40 kts 120°
2026-05-07 02:23 25.77346 -100.09764 1257 ft 18 kts 122°
2026-05-07 02:23 25.77301 -100.09696 1256 ft 11 kts 142°
2026-05-07 02:23 25.77234 -100.09710 1255 ft 11 kts 211°
2026-05-07 02:23 25.77172 -100.09754 1257 ft 10 kts 213°
2026-05-07 02:24 25.77157 -100.09824 1263 ft 10 kts 291°
2026-05-07 02:24 25.77191 -100.09890 1258 ft 10 kts 302°
2026-05-07 02:24 25.77226 -100.09954 1255 ft 10 kts 301°
2026-05-07 02:24 25.77260 -100.10016 1260 ft 9 kts 301°
2026-05-07 02:25 25.77293 -100.10077 1257 ft 9 kts 301°
2026-05-07 02:25 25.77325 -100.10137 1259 ft 9 kts 301°
2026-05-07 02:25 25.77356 -100.10193 1260 ft 9 kts 302°
2026-05-07 02:25 25.77388 -100.10249 1264 ft 9 kts 302°
2026-05-07 02:26 25.77423 -100.10313 1265 ft 10 kts 301°
2026-05-07 02:26 25.77462 -100.10387 1268 ft 12 kts 300°
2026-05-07 02:26 25.77505 -100.10469 1268 ft 13 kts 299°
2026-05-07 02:26 25.77551 -100.10553 1271 ft 13 kts 304°
2026-05-07 02:27 25.77599 -100.10635 1269 ft 13 kts 301°
2026-05-07 02:27 25.77651 -100.10729 1269 ft 16 kts 301°
2026-05-07 02:27 25.77711 -100.10838 1270 ft 17 kts 301°
2026-05-07 02:27 25.77776 -100.10955 1271 ft 18 kts 301°
2026-05-07 02:28 25.77844 -100.11079 1273 ft 19 kts 300°
2026-05-07 02:28 25.77855 -100.11104 1273 ft 0 kts 281°
2026-05-07 02:28 25.77853 -100.11108 1273 ft 3 kts 258°
2026-05-07 02:28 25.77821 -100.11148 1274 ft 10 kts 216°
2026-05-07 02:29 25.77750 -100.11192 1272 ft 13 kts 195°
2026-05-07 02:29 25.77684 -100.11135 1271 ft 12 kts 123°
2026-05-07 02:29 25.77660 -100.11125 1271 ft 4 kts 182°
2026-05-07 02:29 25.77634 -100.11134 1271 ft 4 kts 203°
2026-05-07 02:30 25.77620 -100.11143 1271 ft 0 kts 207°
2026-05-07 02:30 25.77619 -100.11143 1271 ft 0 kts 207°